Main page
METAR-TAF:

METAR-TAF

Airports :

Oil platform

P11-b, Netherlands

latitude: 52-21-36N, longitude: 3-20-30E, elevation: 24 m

Current weather observation

The report was made 29 minutes ago, at 00:25 UTC
Wind 34 kt from the West, varying between Southwest and North
Temperature 8°C
Humidity 66%
Pressure 1013 hPa
Visibility 10 km or more
Few clouds at a height of 2500 ft

METAR: EHPG 180025Z AUTO 26034KT 230V360 9999 FEW025 08/02 Q1013

Time: 01:54 (00:54 UTC)


TAF: missing

Weather observations and forecasts of more than 4000 airports (METAR and TAF reports).

The available stations are represented by yellow and red dots on the map.

Hover mouse over dot to see the name of the station.

Then click to see weather observations and forecasts.

To change the map : click on the green buttons with a black cross to zoom in, on the green button with a dash to zoom out, or on the green arrows for adjacent maps.


METAR-TAF: